This is the latest recevied weather packets stored in our database for station/object DJ2KUA-6. If no packets are shown the sender has not sent any weather packets the latest 10 day(s).
| Time | Temp. | Humidity | Pressure | Rain* | Wind** | Luminosity | Snow |
|---|---|---|---|---|---|---|---|
| 1777731001 | 29.44° C | 34% | 1070 hPa | 0 mm | - | - | - |
| 1777729865 | 28.89° C | 35% | 1070 hPa | 0 mm | - | - | - |
| 1777728721 | 28.89° C | 36% | 1071 hPa | 0 mm | - | - | - |
| 1777727579 | 28.89° C | 37% | 1071 hPa | 0 mm | - | - | - |
| 1777726440 | 28.33° C | 38% | 1071 hPa | 0 mm | - | - | - |
| 1777725302 | 27.22° C | 40% | 1071 hPa | 0 mm | - | - | - |
| 1777724160 | 26.11° C | 41% | 1072 hPa | 0 mm | - | - | - |
| 1777723021 | 25.56° C | 41% | 1072 hPa | 0 mm | - | - | - |
| 1777721881 | 25° C | 42% | 1072 hPa | 0 mm | - | - | - |
| 1777719600 | 23.89° C | 44% | 1073 hPa | 0 mm | - | - | - |
| 1777718462 | 23.33° C | 44% | 1073 hPa | 0 mm | - | - | - |
| 1777717320 | 23.33° C | 43% | 1073 hPa | 0 mm | - | - | - |
| 1777716182 | 23.33° C | 42% | 1074 hPa | 0 mm | - | - | - |
| 1777715042 | 23.33° C | 42% | 1074 hPa | 0 mm | - | - | - |
| 1777713901 | 22.78° C | 42% | 1074 hPa | 0 mm | - | - | - |
| 1777712761 | 22.22° C | 43% | 1074 hPa | 0 mm | - | - | - |
| 1777711621 | 21.11° C | 45% | 1074 hPa | 0 mm | - | - | - |
| 1777709342 | 20° C | 48% | 1074 hPa | 0 mm | - | - | - |
| 1777707063 | 17.78° C | 53% | 1075 hPa | 0 mm | - | - | - |
| 1777704780 | 14.44° C | 61% | 1075 hPa | 0 mm | - | - | - |
| 1777703640 | 13.33° C | 63% | 1075 hPa | 0 mm | - | - | - |
| 1777702503 | 12.22° C | 65% | 1075 hPa | 0 mm | - | - | - |
| 1777701362 | 11.11° C | 68% | 1074 hPa | 0 mm | - | - | - |
| 1777700222 | 10° C | 69% | 1074 hPa | 0 mm | - | - | - |
| 1777699193 | 9.44° C | 69% | 1074 hPa | 0 mm | - | - | - |
* Rain latest hour (hover to see other rain measurements)
** Current wind speed in m/s (hover to see current wind gust speed)